SCP
0 0 0 0 0 0 0 0 0 0 0 0 0 0 0 0 0 0 0 0 0 0 0 0 0 0 0 0 0 0 0 0 0 0 0 0 0 0 0 0 0 0 0 0 0 0 0 0 0 0 0 0 0 0
0 0 0 0 0 0 0 0 0 0 0 0 0 0 0 0 0 0 0 0 0 0 0 0 0 0 0 0 0 0 0 0 0 0 0 0 0 0 0 0 0 0 0 0 0 0 0 0 0 0 0 0 0 0
0 0 0 0 0 0 0 0 0 0 0 0 0 0 0 0 0 0 0 0 0 0 -0 0 0 0 0 0 0 0 0 0 0 0 0 0 0 0 0 0 0 0 0 0 0 0 0 0 0 0 0 0 0 0
0 0 0 0 0 0 0 0 0 0 0 0 0 0 0 0 0 0 0 0 0 0 0 -0 0 0 0 0 0 0 0 0 0 0 0 0 0 0 0 0 0 0 -0 0 0 0 -0 0 0 0 0 0 0 0
0 0 0 0 0 0 0 0 0 0 0 0 0 0 0 0 0 0 0 0 0 0 0 0 0 0 0 0 0 0 0 0 0 0 0 0 0 0 0 0 0 0 0 0 0 -0 0 0 -0 0 0 0 0 0
0 0 0 0 0 0 0 0 0 0 0 0 0 0 0 0 0 0 0 0 0 0 0 0 0 0 0 0 0 0 0 0 0 0 0 0 0 0 0 0 0 0 0 0 0 0 0 -0 0 0 0 0 0 0
-0 0 0 0 0 0 0 0 0 0 0 0 0 0 0 0 0 0 0 0 0 0 0 0 0 0 0 0 0 0 0 0 0 0 0 0 0 0 0 0 0 0 0 0 0 -0 -0 0 0 0 0 0 0 0
-0 -0 0 0 0 0 0 0 0 0 0 0 0 -0 0 0 0 -0 -0 0 0 0 0 0 0 0 0 0 0 0 0 0 0 0 0 0 0 0 0 0 0 0 0 0 0 0 0 0 0 0 0 0 0 0
0 0 0 0 0 0 0 0 0 0 0 -0 -0 0 0 0 -0 0 -0 -0 0 0 0 0 0 0 0 0 0 0 0 0 0 0 0 0 0 0 0 0 0 0 0 0 0 0 0 0 0 0 0 0 0 0
-0 -0 -0 -0 -0 -0 -0 -0 0 -0 -0 -0 0 0 0 -0 -0 0 0 0 0 0 0 0 0 0 0 0 0 0 0 0 0 0 0 0 0 0 0 0 0 0 0 0 0 0 0 0 0 0 0 0 0 0
0 0 -0 -0 -0 -0 -0 -0 -0 -0 0 0 0 0 0 0 0 0 0 0 0 0 0 0 0 0 0 0 0 0 0 0 0 0 0 0 0 0 0 0 0 0 0 0 0 0 0 0 0 0 0 0 0 0
0 0 0 0 0 0 0 0 0 0 0 0 0 0 0 0 0 0 0 0 0 0 0 0 0 0 0 0 0 0 0 0 0 0 0 0 0 0 0 0 0 0 0 0 0 0 0 0 0 0 0 0 0 0
0 0 0 0 0 0 0 0 0 0 0 0 0 0 0 0 0 0 0 0 0 0 0 0 0 0 0 0 0 0 0 0 0 0 0 0 0 0 0 0 0 0 0 0 0 0 0 0 0 0 0 0 0 0
-0 -0 0 -0 0 0 -0 0 0 0 0 0 0 0 0 0 0 0 0 0 0 0 0 0 0 0 0 0 0 0 0 0 -0 0 0 0 0 0 0 0 0 0 0 0 0 0 0 0 0 0 0 0 0 0
-0 0 0 0 0 0 0 0 0 0 0 0 0 0 0 0 0 0 0 0 0 0 0 0 0 0 0 0 0 0 0 0 0 0 0 0 0 0 0 0 0 0 0 0 0 0 0 0 0 0 0 0 0 0
0 0 0 -0 -0 0 0 0 0 0 0 0 0 0 0 0 0 0 0 0 0 0 0 0 0 0 0 0 0 0 0 0 0 0 0 0 0 0 0 0 0 0 0 0 0 0 0 0 0 0 0 0 0 0
0 0 0 0 0 0 0 0 0 0 0 0 0 0 0 0 0 0 0 0 0 0 0 0 0 0 0 0 0 0 0 0 0 0 0 0 0 0 0 0 0 0 0 0 0 0 0 0 0 0 0 0 0 0
0 0 0 0 0 0 0 0 0 0 0 0 0 0 0 0 0 0 0 0 0 0 0 0 0 0 0 0 0 0 0 0 0 0 0 0 0 0 0 0 0 0 0 0 0 0 0 0 0 0 0 0 0 0
0 0 0 0 0 0 0 0 0 0 0 0 0 0 0 0 0 0 0 0 0 0 0 0 0 0 0 0 0 0 0 0 0 0 0 0 0 0 0 0 0 0 0 0 0 0 0 0 0 0 0 0 0 0
-0 -0 0 0 0 0 0 0 0 0 0 0 0 0 0 0 0 0 0 0 0 0 0 0 0 0 0 0 0 0 0 0 0 0 0 0 0 0 0 0 0 0 0 0 0 0 0 0 0 0 0 0 0 0
0 0 -0 0 0 0 0 0 0 0 0 0 0 0 0 0 0 0 0 0 0 0 0 0 0 0 0 0 0 0 0 0 0 0 0 0 0 0 0 0 0 0 0 0 0 0 0 0 0 0 0 0 0 0
0 0 0 0 0 0 0 0 0 0 0 0 0 0 0 0 0 0 0 0 0 0 0 0 0 0 0 0 0 0 0 0 0 0 0 0 0 0 0 0 0 0 0 0 0 0 0 0 0 0 0 0 0 0
0 0 0 0 0 0 0 0 0 0 0 0 0 0 0 0 0 0 0 0 0 0 0 0 0 0 0 0 0 0 0 0 0 0 0 0 0 0 0 0 0 0 0 0 0 0 0 0 0 0 0 0 0 0
0 0 0 0 0 0 0 0 0 0 0 0 0 0 0 0 0 0 0 0 0 0 0 0 0 0 0 0 0 0 0 0 0 0 0 0 0 0 0 0 0 0 0 0 0 0 0 0 0 0 0 0 0 0
0 0 0 0 0 0 0 0 0 0 0 0 0 0 0 0 0 0 0 0 0 0 0 0 0 0 0 0 0 0 0 0 0 0 0 0 0 0 0 0 0 0 0 0 0 0 0 0 0 0 0 0 0 0
0 0 0 0 0 0 0 0 0 0 0 0 0 0 0 0 0 0 0 0 0 0 0 0 0 0 0 0 0 0 0 0 0 0 0 0 0 0 0 0 0 0 0 0 0 0 0 0 0 0 0 0 0 0
0 0 0 0 0 0 0 0 0 0 0 0 0 0 0 0 0 0 0 0 0 0 0 0 0 0 0 0 0 0 0 0 0 0 0 0 0 0 0 0 0 0 0 0 0 0 0 0 0 0 0 0 0 0
0 0 0 0 0 0 0 0 0 0 0 0 0 0 0 0 0 0 0 0 0 0 0 0 0 0 0 0 0 0 0 0 0 0 0 0 0 0 0 0 0 0 0 0 0 0 0 0 0 0 0 0 0 0
0 0 0 0 0 0 0 0 0 0 0 0 0 0 0 0 0 0 0 0 0 0 0 0 0 0 0 0 0 0 0 0 0 0 0 0 0 0 0 0 0 0 0 0 0 0 0 0 0 0 0 0 0 0
0 0 0 0 0 0 0 0 0 0 0 0 0 0 0 0 0 0 0 0 0 0 0 0 0 0 0 0 0 0 0 0 0 0 0 0 0 0 0 0 0 0 0 0 0 0 0 0 0 0 0 0 0 0
0 0 0 0 0 0 0 0 0 0 0 0 0 0 0 0 0 0 0 0 0 0 0 0 0 0 0 0 0 0 0 0 0 0 0 0 0 0 0 0 0 0 0 0 0 0 0 0 0 0 0 0 0 0
0 0 0 0 0 0 0 0 0 0 0 0 0 0 0 0 0 0 0 0 0 0 0 0 0 0 0 0 0 0 0 0 0 0 0 0 0 0 0 0 0 0 0 0 0 0 0 0 0 0 0 0 0 0
0 0 0 0 0 0 0 0 0 0 0 0 0 0 0 0 0 0 0 0 0 0 0 0 0 0 0 0 0 0 0 0 0 0 0 0 0 0 0 0 0 0 0 0 0 0 0 0 0 0 0 0 0 0
Wind_Speed_500mb
59 59 61 58 52 48 44 40 37 36 32 33 37 40 43 44 45 45 46 49 52 13 40 39 43 27 24 25 9 7 4 5 3 7 5 3 7 8 6 11 7 13 11 7 7 11 17 15 8 13 10 14 22 24
63 69 72 60 52 47 45 41 37 37 37 38 41 43 44 46 50 42 48 45 35 45 17 34 56 42 38 30 32 29 15 11 21 4 5 6 6 3 7 8 3 9 8 5 13 9 7 13 9 21 33 36 40 31
46 50 50 49 48 45 43 41 40 40 40 42 45 46 47 47 48 41 44 32 33 38 42 60 43 48 40 27 20 15 19 41 20 14 11 2 6 5 6 8 3 9 14 6 5 2 26 45 42 45 40 41 45 41
42 46 50 51 47 46 47 44 42 41 40 40 49 46 46 46 47 39 43 42 41 17 12 23 25 63 28 39 36 30 19 22 20 15 7 5 5 12 6 4 4 9 4 10 9 17 30 49 43 37 45 41 41 37
44 55 53 49 47 46 42 41 42 40 39 43 44 47 46 41 41 36 41 45 49 51 6 12 20 28 35 45 47 37 25 19 12 9 5 7 6 4 3 3 8 14 11 8 11 19 19 21 50 47 47 46 43 40
40 42 47 47 44 41 40 40 40 37 38 41 42 41 39 37 30 25 19 56 68 53 7 4 14 25 36 38 33 33 32 23 9 9 7 9 9 12 4 9 14 33 36 36 19 16 41 63 55 44 42 40 41 36
38 42 44 46 46 45 42 42 41 37 39 38 34 37 36 36 38 46 15 7 37 58 11 6 4 12 19 27 37 31 28 23 18 10 12 11 14 18 4 18 7 24 38 48 47 57 47 34 28 17 25 26 27 31
42 43 44 46 46 45 44 42 39 37 38 35 33 37 32 35 41 51 67 14 49 39 10 4 5 4 13 12 11 24 17 24 15 12 6 7 12 14 9 21 23 53 56 56 52 29 30 28 29 30 30 34 36 36
47 48 47 46 42 42 41 41 39 38 39 33 40 41 38 43 42 47 47 52 59 19 10 6 7 6 8 5 9 8 12 4 11 6 7 17 9 13 19 29 38 30 21 16 16 15 18 25 27 30 30 32 34 36
53 54 53 52 49 44 45 44 43 43 38 38 42 15 12 26 49 33 22 26 16 10 7 4 8 3 10 9 6 9 8 5 6 10 13 7 10 51 46 35 32 24 17 15 15 21 23 26 27 24 21 20 21 25
71 63 57 56 51 49 48 50 49 39 48 50 25 22 25 56 40 13 8 7 7 3 11 12 28 8 17 7 7 16 4 5 6 8 14 8 7 2 8 26 20 16 11 12 10 13 13 16 19 21 21 21 20 17
51 66 76 75 65 59 52 46 47 45 43 46 32 40 31 7 9 8 4 6 8 9 14 10 15 18 13 11 6 8 5 5 9 14 7 6 3 9 12 15 14 9 4 6 9 13 16 17 19 19 18 14 18 16
78 68 56 51 48 46 38 51 52 50 57 59 18 7 7 5 5 11 13 7 7 9 20 19 8 19 12 10 5 5 9 8 2 7 6 1 11 9 9 8 5 2 4 7 12 15 17 19 19 19 17 13 10 9
87 91 91 85 72 60 62 80 77 58 23 8 9 9 8 6 7 7 6 7 10 8 21 27 11 7 11 10 5 8 10 3 5 5 9 4 12 7 4 4 2 4 8 10 10 10 10 10 9 8 8 15 10 10
67 71 74 64 56 44 48 43 17 11 5 7 7 6 8 8 7 3 6 3 3 7 13 9 9 14 6 8 10 6 7 9 10 6 3 14 12 7 2 3 1 4 6 8 9 9 9 8 8 8 2 6 9 7
35 39 40 26 27 27 27 14 4 14 7 5 6 6 5 5 3 4 6 11 9 5 7 8 5 6 10 5 8 11 8 10 5 4 20 16 10 5 3 1 2 3 7 9 11 13 13 11 9 9 8 4 5 7
18 27 21 15 13 11 11 9 4 5 5 4 5 4 3 3 4 8 12 13 15 15 7 8 9 10 5 5 6 6 8 3 19 25 17 10 7 6 5 5 5 4 7 12 14 16 17 16 14 10 6 5 2 2
31 26 21 14 12 12 10 5 5 4 3 2 3 4 9 10 9 14 14 19 18 14 11 7 4 8 6 6 4 5 10 26 22 19 14 8 8 9 7 8 6 10 12 13 13 14 12 11 14 17 11 9 7 5
20 14 13 14 9 4 3 3 2 4 5 5 6 6 6 8 9 13 16 21 28 28 10 8 5 4 5 3 5 28 34 29 28 22 18 17 15 16 18 17 15 13 11 9 7 9 11 10 12 12 11 9 5 5
12 14 15 12 12 5 3 2 2 3 3 1 6 5 5 7 7 7 14 12 2 6 1 1 2 2 1 6 21 38 32 34 35 30 27 22 18 17 17 14 14 14 12 10 11 10 10 11 16 20 10 6 5 6
6 10 11 8 7 5 3 4 3 3 4 5 4 6 5 8 8 6 8 14 6 7 3 5 7 11 17 24 27 30 32 25 24 26 28 24 16 13 13 10 9 10 10 8 5 7 10 13 14 15 18 15 13 13
8 11 5 4 3 3 3 2 5 8 4 3 4 6 5 3 5 1 2 11 6 6 6 7 20 22 23 23 22 21 20 22 20 20 20 19 17 13 11 11 8 6 4 3 1 1 3 7 10 9 11 14 14 16
7 2 2 2 3 2 3 7 3 2 0 4 2 3 3 1 3 5 7 5 5 8 2 17 16 14 14 15 15 18 16 16 18 14 14 14 12 10 8 7 8 5 3 1 6 2 4 7 11 15 20 23 25 25
6 2 4 5 8 4 9 5 6 5 4 2 2 5 1 0 6 5 4 4 5 5 9 13 12 14 14 16 21 20 18 12 9 15 14 12 12 12 8 7 9 9 7 7 9 11 14 18 22 25 28 25 21 21
3 12 9 10 10 9 9 10 9 5 2 3 1 5 4 1 4 4 3 5 4 8 8 8 13 14 15 17 15 12 7 6 6 14 17 14 12 13 11 7 5 3 2 7 12 16 19 23 27 27 28 28 25 23
9 11 8 9 8 5 4 5 3 3 2 5 5 5 3 5 5 1 3 11 5 5 1 3 9 13 14 13 11 9 8 8 6 4 9 15 13 16 14 9 6 8 12 13 16 21 24 27 29 28 26 24 23 23
8 7 10 13 12 11 9 7 6 3 2 3 5 7 5 2 4 2 3 8 6 6 1 2 5 8 15 19 13 9 9 10 11 11 8 10 11 16 15 11 12 12 13 19 25 28 29 30 30 28 25 23 24 28
7 13 2 26 11 7 3 5 4 6 4 15 10 8 4 2 2 3 2 0 2 4 6 5 2 7 15 15 10 6 8 8 13 14 13 12 13 12 8 5 7 14 23 28 28 27 26 26 26 23 20 20 23 29
7 20 21 9 8 5 8 5 7 9 17 10 3 1 4 5 1 3 8 9 10 10 10 8 9 10 8 8 7 7 11 15 16 17 15 13 11 6 7 11 16 23 24 25 26 24 21 20 17 16 17 21 26 23
10 23 8 5 2 4 4 12 16 21 17 8 3 4 6 7 4 2 8 11 11 12 14 12 5 3 3 5 7 8 13 18 22 24 25 21 17 15 14 19 21 19 18 17 16 15 15 16 16 18 19 17 13 11
13 9 5 4 7 3 16 28 28 19 16 6 5 4 7 7 5 4 5 3 2 3 4 5 4 7 11 9 4 2 2 3 5 6 8 9 9 12 15 17 16 14 12 10 10 9 9 8 8 8 8 8 11 13
10 5 6 4 8 14 24 15 15 7 7 6 4 5 5 3 2 4 10 5 2 4 4 3 3 4 8 11 12 10 7 7 10 8 8 9 9 9 10 11 10 8 8 7 7 8 8 9 9 9 10 10 10 10
8 6 6 10 10 15 14 20 9 11 9 6 6 4 3 1 2 1 1 1 2 2 1 2 1 1 1 2 3 4 5 6 5 4 3 3 2 3 4 4 5 5 5 5 6 7 8 8 8 9 9 9 9 10
Wind_Direction_500mb
231 229 228 230 232 232 235 240 245 246 244 240 232 223 215 216 225 226 238 232 234 244 254 251 246 245 259 262 208 228 126 175 138 166 194 211 237 228 215 226 238 193 177 195 191 218 253 233 220 171 223 275 265 280
227 227 223 225 228 234 240 241 242 240 241 236 228 220 215 216 222 228 240 237 246 247 262 231 245 245 251 261 257 224 195 247 204 116 180 206 218 238 209 260 274 249 200 205 200 212 330 290 262 273 284 281 288 283
222 203 204 218 229 236 235 233 235 238 239 232 222 219 214 216 224 229 235 237 233 240 283 260 246 232 232 241 251 225 218 235 211 206 162 120 261 138 224 235 257 333 35 252 281 108 299 287 285 295 291 276 285 287
217 214 217 224 234 235 230 232 234 236 234 227 219 216 217 221 226 230 229 224 228 227 247 262 254 229 231 235 248 256 254 238 229 188 123 167 211 184 240 251 206 203 217 236 241 261 263 277 281 299 306 291 284 282
231 226 224 225 228 225 229 230 231 231 226 217 216 217 219 225 231 232 241 238 225 204 264 265 211 220 233 231 229 234 248 247 215 150 118 206 211 177 257 315 234 203 210 187 231 245 245 274 305 300 294 287 291 284
223 213 218 225 221 221 223 222 222 221 215 213 216 214 221 222 224 231 251 241 223 212 248 263 221 195 215 218 220 228 228 225 203 174 197 221 200 181 212 251 233 246 249 247 250 270 293 299 296 289 284 286 286 286
219 217 217 215 216 219 221 218 216 217 208 208 217 217 214 225 219 203 204 239 225 220 228 251 261 175 196 204 212 216 220 219 219 223 219 197 189 191 199 254 193 239 254 265 277 291 294 286 275 286 291 294 293 280
222 222 222 222 222 222 221 220 217 214 210 215 219 216 220 212 212 227 217 279 197 185 206 190 253 163 179 177 171 201 202 204 215 220 208 194 182 191 247 249 250 253 260 270 276 268 272 280 290 289 291 290 286 285
229 228 227 224 223 223 217 216 211 207 212 220 220 220 212 203 216 227 230 239 198 215 194 164 158 202 165 148 156 158 199 216 211 225 208 183 181 216 237 238 259 275 255 264 235 250 263 273 282 290 293 295 283 278
230 229 225 225 224 221 215 210 209 208 219 196 205 198 206 208 207 205 194 177 185 198 215 190 186 228 159 176 146 153 200 227 233 225 176 221 243 240 243 250 264 267 247 256 279 284 284 282 279 283 295 297 300 290
232 227 223 217 215 213 210 212 212 216 205 191 204 204 181 167 153 179 129 133 142 208 209 219 203 152 181 158 177 194 228 219 233 206 190 227 250 6 226 214 187 188 221 260 275 285 274 274 286 288 272 277 295 276
216 220 220 220 218 216 219 215 210 206 185 164 158 129 120 119 82 88 124 149 202 218 189 184 208 201 182 169 124 193 231 229 244 151 211 242 122 118 122 124 137 156 216 274 281 284 288 291 289 291 260 281 292 272
100 111 128 149 169 176 173 130 138 142 137 124 129 97 121 93 101 176 179 187 205 202 182 172 162 168 162 167 184 209 225 238 227 200 220 104 111 90 81 88 108 107 260 287 300 295 297 289 285 283 260 228 259 270
110 108 112 111 114 116 129 130 137 130 143 157 131 119 138 187 229 195 187 190 188 165 166 173 132 144 172 169 185 219 230 258 259 240 215 144 143 114 69 61 249 342 341 327 335 333 326 326 326 314 253 205 223 242
103 109 112 112 117 122 130 137 118 120 76 90 110 131 188 210 217 214 217 128 133 143 163 183 219 207 177 202 190 188 218 232 213 224 144 145 143 142 166 214 293 338 358 35 32 23 22 24 20 14 41 168 179 188
96 108 90 102 119 132 149 168 35 40 64 77 88 91 136 108 275 215 247 251 234 230 199 239 255 221 223 204 179 203 182 223 214 125 141 144 123 115 135 155 120 60 63 59 57 51 50 50 53 59 64 101 147 163
114 101 105 105 108 129 151 150 94 49 43 52 38 92 96 40 244 243 226 224 199 197 209 214 230 208 160 205 208 179 208 175 137 133 133 126 124 152 145 116 110 101 78 72 74 71 68 59 52 54 68 73 81 247
102 90 79 80 101 99 111 68 86 81 73 146 167 219 205 227 221 239 240 234 218 215 189 235 191 201 205 210 212 176 126 135 137 136 126 133 146 148 147 158 129 104 86 77 69 65 67 49 40 45 54 59 55 45
74 59 36 36 52 61 66 73 76 168 210 209 239 229 258 271 282 284 284 273 246 243 249 195 208 199 202 176 138 140 149 144 138 126 127 118 114 114 110 103 101 103 103 95 69 78 74 62 43 25 25 24 25 20
25 24 19 19 21 36 53 37 336 312 266 250 233 223 237 266 291 312 337 343 223 192 168 69 128 169 226 182 166 158 150 146 138 120 115 112 105 107 109 97 102 95 81 92 98 79 56 31 7 351 348 3 350 335
342 343 340 337 347 355 334 326 278 279 280 225 245 228 259 251 272 292 343 346 36 22 45 33 114 120 137 140 154 160 156 158 152 145 143 133 123 110 103 98 105 95 93 90 71 41 6 12 1 9 28 38 33 18
308 316 309 317 299 279 264 294 285 303 256 264 223 229 234 258 261 300 343 41 36 1 6 153 138 135 134 135 140 151 161 180 173 152 149 150 143 139 144 150 158 129 91 107 165 14 355 3 19 14 356 359 345 330
327 313 229 254 275 310 246 317 266 258 87 282 224 239 280 256 143 151 66 47 21 360 151 164 155 157 158 146 147 148 147 154 151 158 166 164 161 160 166 168 169 165 201 167 192 234 308 324 321 320 318 314 312 312
353 49 30 44 15 283 325 340 333 305 319 305 321 331 314 29 162 75 89 56 54 147 158 166 179 167 151 144 155 154 151 155 165 168 172 197 200 197 207 211 211 228 228 222 248 278 291 298 305 311 313 310 303 305
63 15 23 345 15 6 14 349 344 22 306 283 24 306 285 244 69 48 85 24 53 118 146 171 174 167 163 143 140 156 151 136 171 173 172 199 210 186 178 165 144 132 325 305 305 307 305 302 303 307 307 307 308 305
69 25 36 357 324 2 314 343 300 265 299 323 255 321 346 81 61 28 34 352 67 144 134 205 223 223 205 190 170 172 192 199 212 227 212 216 232 239 225 213 231 292 321 321 324 323 320 317 316 316 315 310 307 307
44 327 5 24 325 312 321 312 296 41 314 289 305 352 56 180 228 320 42 34 90 88 42 288 264 251 220 198 198 209 227 252 245 245 217 201 193 194 215 243 271 300 318 324 326 325 324 323 324 326 320 310 310 313
38 31 348 324 312 315 214 337 23 5 341 342 338 31 45 50 216 9 50 244 285 330 338 343 278 211 192 194 210 246 273 249 207 199 192 181 181 191 207 249 307 319 322 320 320 322 323 321 322 323 322 320 323 326
36 1 343 340 328 335 9 357 18 19 348 341 110 189 116 119 136 247 237 256 276 286 307 299 237 226 222 224 237 238 217 213 220 221 223 215 206 227 266 297 313 320 318 317 317 320 321 324 325 321 321 321 327 334
349 351 321 327 81 264 8 347 327 325 330 322 308 146 137 143 146 253 301 305 288 264 261 263 288 235 253 270 259 242 224 219 228 240 249 244 258 273 291 313 320 320 320 322 325 329 332 331 326 317 317 325 337 358
308 314 304 299 266 315 339 327 321 297 271 265 279 201 137 153 183 273 291 282 253 202 215 229 243 251 254 252 246 328 298 226 203 206 214 227 248 284 311 325 334 336 342 351 356 0 0 359 357 7 28 49 63 64
312 347 321 295 279 306 319 323 313 278 214 150 82 81 119 128 76 41 43 46 295 270 247 252 285 220 211 232 249 263 266 271 293 285 261 259 275 299 319 333 347 358 11 23 32 41 54 61 66 70 64 57 51 44
300 325 336 320 322 344 347 339 345 14 57 68 59 55 60 60 126 131 199 104 54 60 32 350 315 255 239 261 278 284 270 266 259 243 229 234 263 299 329 360 14 19 30 45 56 66 66 63 56 56 54 50 44 37
Wind_Speed_850mb
59 59 61 58 52 48 44 40 37 36 32 33 37 40 43 44 45 45 46 49 52 13 40 39 43 27 24 25 9 7 4 5 3 7 5 3 7 8 6 11 7 13 11 7 7 11 17 15 8 13 10 14 22 24
63 69 72 60 52 47 45 41 37 37 37 38 41 43 44 46 50 42 48 45 35 45 17 34 56 42 38 30 32 29 15 11 21 4 5 6 6 3 7 8 3 9 8 5 13 9 7 13 9 21 33 36 40 31
46 50 50 49 48 45 43 41 40 40 40 42 45 46 47 47 48 41 44 32 33 38 42 60 43 48 40 27 20 15 19 41 20 14 11 2 6 5 6 8 3 9 14 6 5 2 26 45 42 45 40 41 45 41
42 46 50 51 47 46 47 44 42 41 40 40 49 46 46 46 47 39 43 42 41 17 12 23 25 63 28 39 36 30 19 22 20 15 7 5 5 12 6 4 4 9 4 10 9 17 30 49 43 37 45 41 41 37
44 55 53 49 47 46 42 41 42 40 39 43 44 47 46 41 41 36 41 45 49 51 6 12 20 28 35 45 47 37 25 19 12 9 5 7 6 4 3 3 8 14 11 8 11 19 19 21 50 47 47 46 43 40
40 42 47 47 44 41 40 40 40 37 38 41 42 41 39 37 30 25 19 56 68 53 7 4 14 25 36 38 33 33 32 23 9 9 7 9 9 12 4 9 14 33 36 36 19 16 41 63 55 44 42 40 41 36
38 42 44 46 46 45 42 42 41 37 39 38 34 37 36 36 38 46 15 7 37 58 11 6 4 12 19 27 37 31 28 23 18 10 12 11 14 18 4 18 7 24 38 48 47 57 47 34 28 17 25 26 27 31
42 43 44 46 46 45 44 42 39 37 38 35 33 37 32 35 41 51 67 14 49 39 10 4 5 4 13 12 11 24 17 24 15 12 6 7 12 14 9 21 23 53 56 56 52 29 30 28 29 30 30 34 36 36
47 48 47 46 42 42 41 41 39 38 39 33 40 41 38 43 42 47 47 52 59 19 10 6 7 6 8 5 9 8 12 4 11 6 7 17 9 13 19 29 38 30 21 16 16 15 18 25 27 30 30 32 34 36
53 54 53 52 49 44 45 44 43 43 38 38 42 15 12 26 49 33 22 26 16 10 7 4 8 3 10 9 6 9 8 5 6 10 13 7 10 51 46 35 32 24 17 15 15 21 23 26 27 24 21 20 21 25
71 63 57 56 51 49 48 50 49 39 48 50 25 22 25 56 40 13 8 7 7 3 11 12 28 8 17 7 7 16 4 5 6 8 14 8 7 2 8 26 20 16 11 12 10 13 13 16 19 21 21 21 20 17
51 66 76 75 65 59 52 46 47 45 43 46 32 40 31 7 9 8 4 6 8 9 14 10 15 18 13 11 6 8 5 5 9 14 7 6 3 9 12 15 14 9 4 6 9 13 16 17 19 19 18 14 18 16
78 68 56 51 48 46 38 51 52 50 57 59 18 7 7 5 5 11 13 7 7 9 20 19 8 19 12 10 5 5 9 8 2 7 6 1 11 9 9 8 5 2 4 7 12 15 17 19 19 19 17 13 10 9
87 91 91 85 72 60 62 80 77 58 23 8 9 9 8 6 7 7 6 7 10 8 21 27 11 7 11 10 5 8 10 3 5 5 9 4 12 7 4 4 2 4 8 10 10 10 10 10 9 8 8 15 10 10
67 71 74 64 56 44 48 43 17 11 5 7 7 6 8 8 7 3 6 3 3 7 13 9 9 14 6 8 10 6 7 9 10 6 3 14 12 7 2 3 1 4 6 8 9 9 9 8 8 8 2 6 9 7
35 39 40 26 27 27 27 14 4 14 7 5 6 6 5 5 3 4 6 11 9 5 7 8 5 6 10 5 8 11 8 10 5 4 20 16 10 5 3 1 2 3 7 9 11 13 13 11 9 9 8 4 5 7
18 27 21 15 13 11 11 9 4 5 5 4 5 4 3 3 4 8 12 13 15 15 7 8 9 10 5 5 6 6 8 3 19 25 17 10 7 6 5 5 5 4 7 12 14 16 17 16 14 10 6 5 2 2
31 26 21 14 12 12 10 5 5 4 3 2 3 4 9 10 9 14 14 19 18 14 11 7 4 8 6 6 4 5 10 26 22 19 14 8 8 9 7 8 6 10 12 13 13 14 12 11 14 17 11 9 7 5
20 14 13 14 9 4 3 3 2 4 5 5 6 6 6 8 9 13 16 21 28 28 10 8 5 4 5 3 5 28 34 29 28 22 18 17 15 16 18 17 15 13 11 9 7 9 11 10 12 12 11 9 5 5
12 14 15 12 12 5 3 2 2 3 3 1 6 5 5 7 7 7 14 12 2 6 1 1 2 2 1 6 21 38 32 34 35 30 27 22 18 17 17 14 14 14 12 10 11 10 10 11 16 20 10 6 5 6
6 10 11 8 7 5 3 4 3 3 4 5 4 6 5 8 8 6 8 14 6 7 3 5 7 11 17 24 27 30 32 25 24 26 28 24 16 13 13 10 9 10 10 8 5 7 10 13 14 15 18 15 13 13
8 11 5 4 3 3 3 2 5 8 4 3 4 6 5 3 5 1 2 11 6 6 6 7 20 22 23 23 22 21 20 22 20 20 20 19 17 13 11 11 8 6 4 3 1 1 3 7 10 9 11 14 14 16
7 2 2 2 3 2 3 7 3 2 0 4 2 3 3 1 3 5 7 5 5 8 2 17 16 14 14 15 15 18 16 16 18 14 14 14 12 10 8 7 8 5 3 1 6 2 4 7 11 15 20 23 25 25
6 2 4 5 8 4 9 5 6 5 4 2 2 5 1 0 6 5 4 4 5 5 9 13 12 14 14 16 21 20 18 12 9 15 14 12 12 12 8 7 9 9 7 7 9 11 14 18 22 25 28 25 21 21
3 12 9 10 10 9 9 10 9 5 2 3 1 5 4 1 4 4 3 5 4 8 8 8 13 14 15 17 15 12 7 6 6 14 17 14 12 13 11 7 5 3 2 7 12 16 19 23 27 27 28 28 25 23
9 11 8 9 8 5 4 5 3 3 2 5 5 5 3 5 5 1 3 11 5 5 1 3 9 13 14 13 11 9 8 8 6 4 9 15 13 16 14 9 6 8 12 13 16 21 24 27 29 28 26 24 23 23
8 7 10 13 12 11 9 7 6 3 2 3 5 7 5 2 4 2 3 8 6 6 1 2 5 8 15 19 13 9 9 10 11 11 8 10 11 16 15 11 12 12 13 19 25 28 29 30 30 28 25 23 24 28
7 13 2 26 11 7 3 5 4 6 4 15 10 8 4 2 2 3 2 0 2 4 6 5 2 7 15 15 10 6 8 8 13 14 13 12 13 12 8 5 7 14 23 28 28 27 26 26 26 23 20 20 23 29
7 20 21 9 8 5 8 5 7 9 17 10 3 1 4 5 1 3 8 9 10 10 10 8 9 10 8 8 7 7 11 15 16 17 15 13 11 6 7 11 16 23 24 25 26 24 21 20 17 16 17 21 26 23
10 23 8 5 2 4 4 12 16 21 17 8 3 4 6 7 4 2 8 11 11 12 14 12 5 3 3 5 7 8 13 18 22 24 25 21 17 15 14 19 21 19 18 17 16 15 15 16 16 18 19 17 13 11
13 9 5 4 7 3 16 28 28 19 16 6 5 4 7 7 5 4 5 3 2 3 4 5 4 7 11 9 4 2 2 3 5 6 8 9 9 12 15 17 16 14 12 10 10 9 9 8 8 8 8 8 11 13
10 5 6 4 8 14 24 15 15 7 7 6 4 5 5 3 2 4 10 5 2 4 4 3 3 4 8 11 12 10 7 7 10 8 8 9 9 9 10 11 10 8 8 7 7 8 8 9 9 9 10 10 10 10
8 6 6 10 10 15 14 20 9 11 9 6 6 4 3 1 2 1 1 1 2 2 1 2 1 1 1 2 3 4 5 6 5 4 3 3 2 3 4 4 5 5 5 5 6 7 8 8 8 9 9 9 9 10
Wind_Direction_850mb
231 229 228 230 232 232 235 240 245 246 244 240 232 223 215 216 225 226 238 232 234 244 254 251 246 245 259 262 208 228 126 175 138 166 194 211 237 228 215 226 238 193 177 195 191 218 253 233 220 171 223 275 265 280
227 227 223 225 228 234 240 241 242 240 241 236 228 220 215 216 222 228 240 237 246 247 262 231 245 245 251 261 257 224 195 247 204 116 180 206 218 238 209 260 274 249 200 205 200 212 330 290 262 273 284 281 288 283
222 203 204 218 229 236 235 233 235 238 239 232 222 219 214 216 224 229 235 237 233 240 283 260 246 232 232 241 251 225 218 235 211 206 162 120 261 138 224 235 257 333 35 252 281 108 299 287 285 295 291 276 285 287
217 214 217 224 234 235 230 232 234 236 234 227 219 216 217 221 226 230 229 224 228 227 247 262 254 229 231 235 248 256 254 238 229 188 123 167 211 184 240 251 206 203 217 236 241 261 263 277 281 299 306 291 284 282
231 226 224 225 228 225 229 230 231 231 226 217 216 217 219 225 231 232 241 238 225 204 264 265 211 220 233 231 229 234 248 247 215 150 118 206 211 177 257 315 234 203 210 187 231 245 245 274 305 300 294 287 291 284
223 213 218 225 221 221 223 222 222 221 215 213 216 214 221 222 224 231 251 241 223 212 248 263 221 195 215 218 220 228 228 225 203 174 197 221 200 181 212 251 233 246 249 247 250 270 293 299 296 289 284 286 286 286
219 217 217 215 216 219 221 218 216 217 208 208 217 217 214 225 219 203 204 239 225 220 228 251 261 175 196 204 212 216 220 219 219 223 219 197 189 191 199 254 193 239 254 265 277 291 294 286 275 286 291 294 293 280
222 222 222 222 222 222 221 220 217 214 210 215 219 216 220 212 212 227 217 279 197 185 206 190 253 163 179 177 171 201 202 204 215 220 208 194 182 191 247 249 250 253 260 270 276 268 272 280 290 289 291 290 286 285
229 228 227 224 223 223 217 216 211 207 212 220 220 220 212 203 216 227 230 239 198 215 194 164 158 202 165 148 156 158 199 216 211 225 208 183 181 216 237 238 259 275 255 264 235 250 263 273 282 290 293 295 283 278
230 229 225 225 224 221 215 210 209 208 219 196 205 198 206 208 207 205 194 177 185 198 215 190 186 228 159 176 146 153 200 227 233 225 176 221 243 240 243 250 264 267 247 256 279 284 284 282 279 283 295 297 300 290
232 227 223 217 215 213 210 212 212 216 205 191 204 204 181 167 153 179 129 133 142 208 209 219 203 152 181 158 177 194 228 219 233 206 190 227 250 6 226 214 187 188 221 260 275 285 274 274 286 288 272 277 295 276
216 220 220 220 218 216 219 215 210 206 185 164 158 129 120 119 82 88 124 149 202 218 189 184 208 201 182 169 124 193 231 229 244 151 211 242 122 118 122 124 137 156 216 274 281 284 288 291 289 291 260 281 292 272
100 111 128 149 169 176 173 130 138 142 137 124 129 97 121 93 101 176 179 187 205 202 182 172 162 168 162 167 184 209 225 238 227 200 220 104 111 90 81 88 108 107 260 287 300 295 297 289 285 283 260 228 259 270
110 108 112 111 114 116 129 130 137 130 143 157 131 119 138 187 229 195 187 190 188 165 166 173 132 144 172 169 185 219 230 258 259 240 215 144 143 114 69 61 249 342 341 327 335 333 326 326 326 314 253 205 223 242
103 109 112 112 117 122 130 137 118 120 76 90 110 131 188 210 217 214 217 128 133 143 163 183 219 207 177 202 190 188 218 232 213 224 144 145 143 142 166 214 293 338 358 35 32 23 22 24 20 14 41 168 179 188
96 108 90 102 119 132 149 168 35 40 64 77 88 91 136 108 275 215 247 251 234 230 199 239 255 221 223 204 179 203 182 223 214 125 141 144 123 115 135 155 120 60 63 59 57 51 50 50 53 59 64 101 147 163
114 101 105 105 108 129 151 150 94 49 43 52 38 92 96 40 244 243 226 224 199 197 209 214 230 208 160 205 208 179 208 175 137 133 133 126 124 152 145 116 110 101 78 72 74 71 68 59 52 54 68 73 81 247
102 90 79 80 101 99 111 68 86 81 73 146 167 219 205 227 221 239 240 234 218 215 189 235 191 201 205 210 212 176 126 135 137 136 126 133 146 148 147 158 129 104 86 77 69 65 67 49 40 45 54 59 55 45
74 59 36 36 52 61 66 73 76 168 210 209 239 229 258 271 282 284 284 273 246 243 249 195 208 199 202 176 138 140 149 144 138 126 127 118 114 114 110 103 101 103 103 95 69 78 74 62 43 25 25 24 25 20
25 24 19 19 21 36 53 37 336 312 266 250 233 223 237 266 291 312 337 343 223 192 168 69 128 169 226 182 166 158 150 146 138 120 115 112 105 107 109 97 102 95 81 92 98 79 56 31 7 351 348 3 350 335
342 343 340 337 347 355 334 326 278 279 280 225 245 228 259 251 272 292 343 346 36 22 45 33 114 120 137 140 154 160 156 158 152 145 143 133 123 110 103 98 105 95 93 90 71 41 6 12 1 9 28 38 33 18
308 316 309 317 299 279 264 294 285 303 256 264 223 229 234 258 261 300 343 41 36 1 6 153 138 135 134 135 140 151 161 180 173 152 149 150 143 139 144 150 158 129 91 107 165 14 355 3 19 14 356 359 345 330
327 313 229 254 275 310 246 317 266 258 87 282 224 239 280 256 143 151 66 47 21 360 151 164 155 157 158 146 147 148 147 154 151 158 166 164 161 160 166 168 169 165 201 167 192 234 308 324 321 320 318 314 312 312
353 49 30 44 15 283 325 340 333 305 319 305 321 331 314 29 162 75 89 56 54 147 158 166 179 167 151 144 155 154 151 155 165 168 172 197 200 197 207 211 211 228 228 222 248 278 291 298 305 311 313 310 303 305
63 15 23 345 15 6 14 349 344 22 306 283 24 306 285 244 69 48 85 24 53 118 146 171 174 167 163 143 140 156 151 136 171 173 172 199 210 186 178 165 144 132 325 305 305 307 305 302 303 307 307 307 308 305
69 25 36 357 324 2 314 343 300 265 299 323 255 321 346 81 61 28 34 352 67 144 134 205 223 223 205 190 170 172 192 199 212 227 212 216 232 239 225 213 231 292 321 321 324 323 320 317 316 316 315 310 307 307
44 327 5 24 325 312 321 312 296 41 314 289 305 352 56 180 228 320 42 34 90 88 42 288 264 251 220 198 198 209 227 252 245 245 217 201 193 194 215 243 271 300 318 324 326 325 324 323 324 326 320 310 310 313
38 31 348 324 312 315 214 337 23 5 341 342 338 31 45 50 216 9 50 244 285 330 338 343 278 211 192 194 210 246 273 249 207 199 192 181 181 191 207 249 307 319 322 320 320 322 323 321 322 323 322 320 323 326
36 1 343 340 328 335 9 357 18 19 348 341 110 189 116 119 136 247 237 256 276 286 307 299 237 226 222 224 237 238 217 213 220 221 223 215 206 227 266 297 313 320 318 317 317 320 321 324 325 321 321 321 327 334
349 351 321 327 81 264 8 347 327 325 330 322 308 146 137 143 146 253 301 305 288 264 261 263 288 235 253 270 259 242 224 219 228 240 249 244 258 273 291 313 320 320 320 322 325 329 332 331 326 317 317 325 337 358
308 314 304 299 266 315 339 327 321 297 271 265 279 201 137 153 183 273 291 282 253 202 215 229 243 251 254 252 246 328 298 226 203 206 214 227 248 284 311 325 334 336 342 351 356 0 0 359 357 7 28 49 63 64
312 347 321 295 279 306 319 323 313 278 214 150 82 81 119 128 76 41 43 46 295 270 247 252 285 220 211 232 249 263 266 271 293 285 261 259 275 299 319 333 347 358 11 23 32 41 54 61 66 70 64 57 51 44
300 325 336 320 322 344 347 339 345 14 57 68 59 55 60 60 126 131 199 104 54 60 32 350 315 255 239 261 278 284 270 266 259 243 229 234 263 299 329 360 14 19 30 45 56 66 66 63 56 56 54 50 44 37